Lytton, British Columbia

6:01 AM PST on February 22, 2017 (GMT -0800)
Lytton

Weather History for CWLY - October, 2013

Change the Weather History Date:

Tuesday, October 1, 2013

  Actual Average Record
Temperature  
Mean Temperature 50 °F -  
Max Temperature 53 °F 55 °F 78 °F (2003)
Min Temperature 46 °F 40 °F 39 °F (2002)
Degree Days  
Heating Degree Days 16    
Moisture  
Dew Point 40 °F    
Average Humidity 72    
Maximum Humidity 81    
Minimum Humidity 58    
Precipitation  
Precipitation 0.00 in 0.05 in - ()
Sea Level Pressure  
Sea Level Pressure 29.90 in    
Wind  
Wind Speed 14 mph ()    
Max Wind Speed 23 mph    
Max Gust Speed 33 mph    
Visibility 9.0 miles    
Events Rain    
Averages and records for this station are not official NWS values.
T = Trace of Precipitation, MM = Missing Value Source: Averaged Metar Reports

Daily Weather History Graph

Daily Weather History Graph

Search for Another Location

Airport or City:

Trip Planner

Search our weather history database for the weather conditions in past years. The results will help you decide how hot, cold, wet, or windy it might be!

Date:

Astronomy

Oct. 01, 2013 Rise Set
Actual Time 7:07 AM PDT 6:43 PM PDT
Civil Twilight 6:34 AM PDT 7:16 PM PDT
Nautical Twilight 5:56 AM PDT 7:53 PM PDT
Astronomical Twilight 5:18 AM PDT 8:32 PM PDT
Moon 3:29 AM PDT (10/1) 5:03 PM PDT (10/1)
Length of Visible Light 12h 41m
Length of Day
11h 36m
Waning Crescent, 11% of the Moon is Illuminated
Oct 1
Waning Crescent
Oct 4
New
Oct 11
First Quarter
Oct 18
Full
Oct 26
Last Quarter

Hourly Weather History & Observations

Time (PDT) Temp. Windchill Dew Point Humidity Pressure Visibility Wind Dir Wind Speed Gust Speed Precip Events Conditions
12:00 AM 48.2 °F - 41.0 °F 76% 29.73 in 9.0 mi SW 11.5 mph 32.2 mph N/A   Scattered Clouds
1:00 AM 48.2 °F - 41.0 °F 76% 29.76 in 9.0 mi SSW 16.1 mph 28.8 mph N/A   Mostly Cloudy
2:00 AM 48.2 °F - 39.2 °F 71% 29.78 in 9.0 mi SSW 18.4 mph 29.9 mph N/A   Overcast
2:45 AM 48.2 °F - 41.0 °F 76% 29.81 in 9.0 mi South 18.4 mph 25.3 mph N/A Rain Light Rain
3:00 AM 46.4 °F 39.5 °F 41.0 °F 81% 29.82 in 9.0 mi SSW 17.3 mph 24.2 mph N/A Rain Light Rain
3:28 AM 46.4 °F 40.1 °F 41.0 °F 81% 29.82 in 9.0 mi South 15.0 mph 24.2 mph N/A   Partly Cloudy
4:00 AM 46.4 °F 41.1 °F 39.2 °F 76% 29.82 in 9.0 mi SSW 11.5 mph 24.2 mph N/A   Clear
5:00 AM 46.4 °F 40.1 °F 41.0 °F 81% 29.84 in 9.0 mi South 15.0 mph 23.0 mph N/A   Clear
6:00 AM 46.4 °F 41.1 °F 41.0 °F 81% 29.86 in 9.0 mi South 11.5 mph 18.4 mph N/A   Scattered Clouds
6:33 AM 46.4 °F 39.5 °F 39.2 °F 76% 29.86 in 9.0 mi South 17.3 mph 25.3 mph N/A Rain Light Rain
6:51 AM 46.4 °F 39.0 °F 39.2 °F 76% 29.87 in 9.0 mi South 19.6 mph 27.6 mph N/A   Overcast
7:00 AM 46.4 °F 38.5 °F 39.2 °F 76% 29.87 in 9.0 mi South 21.9 mph 29.9 mph N/A   Overcast
7:23 AM 46.4 °F 38.7 °F 39.2 °F 76% 29.87 in 9.0 mi SSW 20.7 mph 28.8 mph N/A Rain Light Rain
7:37 AM 46.4 °F 39.8 °F 39.2 °F 76% 29.88 in 9.0 mi South 16.1 mph 24.2 mph N/A   Partly Cloudy
8:00 AM 46.4 °F 40.7 °F 39.2 °F 76% 29.89 in 9.0 mi South 12.7 mph 21.9 mph N/A   Clear
9:00 AM 46.4 °F 41.1 °F 39.2 °F 76% 29.90 in 9.0 mi South 11.5 mph 18.4 mph N/A   Mostly Cloudy
9:21 AM 46.4 °F 38.3 °F 39.2 °F 76% 29.90 in 9.0 mi South 23.0 mph 29.9 mph N/A   Scattered Clouds
10:00 AM 48.2 °F - 39.2 °F 71% 29.91 in 9.0 mi South 23.0 mph 33.4 mph N/A   Mostly Cloudy
11:00 AM 48.2 °F - 39.2 °F 71% 29.93 in 9.0 mi SSW 13.8 mph 26.5 mph N/A   Scattered Clouds
12:00 PM 51.8 °F - 41.0 °F 67% 29.92 in 9.0 mi South 16.1 mph 27.6 mph N/A   Mostly Cloudy
1:00 PM 51.8 °F - 41.0 °F 67% 29.93 in 9.0 mi South 18.4 mph 27.6 mph N/A   Partly Cloudy
2:00 PM 53.6 °F - 39.2 °F 58% 29.94 in 9.0 mi SSW 16.1 mph 27.6 mph N/A   Scattered Clouds
3:00 PM 53.6 °F - 41.0 °F 62% 29.94 in 9.0 mi South 16.1 mph 25.3 mph N/A   Clear
4:00 PM 53.6 °F - 39.2 °F 58% 29.95 in 9.0 mi SSW 9.2 mph 27.6 mph N/A   Partly Cloudy
5:00 PM 51.8 °F - 39.2 °F 62% 29.97 in 9.0 mi SSW 16.1 mph 26.5 mph N/A   Clear
6:00 PM 50.0 °F - 41.0 °F 71% 29.98 in 9.0 mi SSW 13.8 mph 31.1 mph N/A   Mostly Cloudy
7:00 PM 50.0 °F - 39.2 °F 66% 30.00 in 9.0 mi SSW 11.5 mph 24.2 mph N/A   Scattered Clouds
8:00 PM 50.0 °F - 39.2 °F 66% 30.01 in 9.0 mi South 19.6 mph 27.6 mph N/A   Overcast
9:00 PM 48.2 °F - 39.2 °F 71% 30.04 in 9.0 mi SSW 13.8 mph 26.5 mph N/A   Overcast
10:00 PM 48.2 °F - 39.2 °F 71% 30.05 in 9.0 mi SSW 17.3 mph 26.5 mph N/A   Mostly Cloudy
11:00 PM 48.2 °F - 39.2 °F 71% 30.06 in 9.0 mi South 12.7 mph 27.6 mph N/A   Partly Cloudy